Torna al catalogo

FALCON 9 R/B

AttivoHEO
NORAD 58996·ROCKET BODY·🇺🇸 United States

Lanciato Feb 20, 2024 da Cape Canaveral Space Force Station

Loading…

Prossimi Passaggi (prossime 24 ore)

TLE

AggiornatoSource: Space-Track

Epoca: Sep 14, 2026, 17:31 UTC

1 58996U 24035B   26257.73026213  .00000024  00000-0  40726-3 0  9995
2 58996  20.8747  73.6373 7993981 198.5281  92.0928  1.40603779 13074

Traccia FALCON 9 R/B in tempo reale con AllMySat

Download on the App Store